loading
|

THOR ABLESTAR DEB, 1521

Orbit data source: Space-Track

THOR ABLESTAR DEB, 1521 is space debris in LEO originally from a launch on Fri, 13 Aug 1965 UTC launched from the Air Force Western Test Range (AFWTR). Debris objects in space refer to the collection of defunct objects orbiting the Earth. Examples of debris include non-operational satellites, rocket bodies, and fragments generated from explosions, collisions, or faulty payload assembly.

Loading next visibility...
Loading greatness...
THOR ABLESTAR DEB details
Identifier
1521, 1965-065K
Orbit
LEO
Last TLE update14 hours ago
Origin
Flag of USNRL (US)
ManufacturerNRL
Mission statusUnknown
MissionUnknown
Bus & MotorUnknown
MassUnknown
Launch date (UTC)
1965-08-13 (59 years ago)
Launch vehicleUnknown
Launch site
Air Force Western Test Range (AFWTR)
Object type
Payload
Rocket body
Debris
Radar Cross SectionSmall (<0.1 m²)

Expand to show TLE details & history

TLE from 14 hours ago
0 THOR ABLESTAR DEB
1 01521U 65065K   24261.35810763  .00000079  00000-0  14197-3 0  9990
2 01521  89.9861 209.9587 0067506 252.8771 274.8455 13.33236275874412
Epoch: 2024-09-17T08:35Z
Definitive object data (Epoch: 2024-09-17T08:35:40.499Z)
Latitude13.01141°
Longitude-95.73716°
Altitude1,132.82 km
Speed7.289 km/s
True Right ascension01h 59m 49s
True Declination12° 56' 24"
Sunlit
Object was in full shadow at TLE epoch
Predictive object data (real-time)
Latitude23.19472°
Longitude-95.7407°
Altitude1,140.954 km
Speed7.283 km/s
Apparent Right ascension02h 43m 45s
Apparent Declination-5° 35' 03"
Sunlit
Object is in full shadow
Predictive observer data (real-time)
Local Sidereal Time15:46:11
Azimuth26.355° NE
Elevation-52.905°
Doppler factor1
Orbital elements
Apogee1,182.351 km
Perigee1,080.96 km
Semi-major axis7,509.792 km
Eccentricity0.0067506
Inclination89.9861°
RAAN209.9587°
Arg. of periapsis252.8771°
True anomaly274.07418°
Mean anomaly274.8455°
Eccentric anomaly274.45989°
Mean motion3.33504 °/min
BSTAR0.00014197
Period107.94 mins
No data available

THOR ABLESTAR DEB Visibility forecast

Observer location: 39.9160978°, -105.1181434

THOR ABLESTAR DEB is not visible in the next 10 days
Span
Click to sort rows by Start time (UTC) header in descending order
Start Az.
Max El. time (UTC)
Max El. Az.
Max El.
End time (UTC)
End Az.